Temperature
-0 0 0 0 0 -0 -0 0 1 1 1 2 2 1 2 2 2 2 2 2 2 2 2 2 2 2 2 2 2 1 1 1 1 1 1 1 1 1 1 0 0 0 0 0
-1 0 -0 -0 0 0 0 0 -0 1 1 1 2 2 1 2 1 1 1 1 1 1 1 1 1 1 1 1 1 1 1 1 1 1 0 0 0 0 0 -0 -0 -0 -0 -1
-0 -1 -0 0 0 0 -0 -1 -0 1 2 1 1 1 1 1 1 1 1 1 1 1 1 1 1 1 1 1 1 1 0 0 0 0 -0 -0 -0 -0 -1 -1 -1 -1 -1 -1
-2 -1 0 2 0 -0 -0 -0 -1 0 0 0 0 1 1 2 2 1 1 1 1 1 0 0 0 0 0 0 0 0 0 -0 -0 -0 -1 -1 -1 -1 -1 -1 -1 -1 -1 -1
-2 -1 -1 1 0 -1 -1 -0 -1 -0 -0 0 0 -0 1 2 2 1 1 1 0 0 -0 -0 -0 -0 -0 -0 -0 -0 -1 -1 -1 -1 -1 -1 -1 -1 -2 -2 -2 -2 -2 -2
-2 -1 -0 1 0 -0 -0 -0 -0 -1 -1 -1 -1 -1 -1 1 1 1 0 0 0 -0 -0 -0 -0 -1 -1 -1 -1 -1 -1 -1 -1 -1 -1 -2 -2 -2 -2 -2 -2 -2 -2 -2
-2 -2 -1 -0 -1 -0 0 1 1 0 -0 -1 -2 -0 1 1 0 0 -0 -0 -0 -1 -1 -1 -1 -1 -1 -1 -1 -1 -1 -1 -2 -2 -2 -2 -2 -2 -2 -2 -2 -2 -2 -3
-3 -2 -0 -1 -2 -1 0 1 1 1 1 0 0 0 0 0 -0 -0 -1 -1 -1 -1 -1 -1 -1 -1 -2 -2 -2 -2 -2 -2 -2 -2 -2 -3 -3 -3 -3 -3 -3 -3 -3 -3
-2 -0 -0 -0 -0 1 1 1 1 1 1 0 -0 0 0 -0 -0 -1 -1 -1 -1 -1 -2 -2 -2 -2 -2 -2 -2 -2 -2 -2 -2 -3 -3 -3 -3 -3 -3 -3 -3 -3 -3 -3
-3 -2 -1 -0 0 1 1 1 1 1 1 0 0 -0 -0 -1 -1 -1 -1 -1 -2 -2 -2 -2 -2 -2 -2 -2 -3 -2 -2 -2 -3 -3 -3 -3 -3 -3 -3 -3 -4 -4 -4 -4
-4 -3 -2 -0 1 1 1 1 1 0 0 0 -0 -0 -1 -1 -1 -1 -1 -2 -2 -2 -2 -2 -2 -2 -3 -3 -3 -3 -3 -3 -3 -3 -3 -3 -4 -4 -4 -4 -4 -4 -4 -4
-1 -1 -2 -0 1 1 1 0 0 -0 -0 -0 -0 -1 -1 -1 -1 -2 -2 -2 -2 -2 -2 -3 -3 -3 -3 -3 -3 -3 -3 -3 -3 -4 -4 -4 -4 -4 -4 -4 -4 -4 -4 -4
-0 0 0 0 0 0 0 0 -0 -0 -0 -1 -1 -1 -1 -1 -2 -2 -2 -2 -2 -2 -3 -3 -3 -3 -3 -3 -3 -3 -4 -4 -4 -4 -4 -4 -4 -4 -4 -4 -4 -4 -4 -4
-0 -0 -1 -0 -0 -0 -0 -1 -1 -1 -1 -1 -1 -1 -2 -2 -2 -2 -2 -2 -3 -3 -3 -3 -3 -3 -3 -4 -4 -4 -4 -4 -4 -4 -4 -4 -4 -4 -4 -4 -4 -4 -4 -4
-1 -1 -1 -1 -1 -1 -1 -1 -1 -1 -1 -1 -2 -2 -2 -2 -2 -2 -2 -3 -3 -3 -3 -3 -3 -4 -4 -4 -4 -4 -4 -4 -4 -5 -5 -5 -5 -5 -5 -5 -5 -5 -4 -5
-1 -1 -1 -1 -1 -2 -2 -2 -2 -2 -2 -2 -2 -2 -2 -3 -3 -3 -3 -3 -3 -3 -3 -3 -4 -4 -4 -4 -4 -5 -5 -5 -5 -5 -5 -5 -5 -5 -5 -5 -5 -5 -5 -5
-2 -3 -2 -2 -2 -2 -2 -2 -2 -2 -2 -2 -2 -2 -3 -3 -3 -3 -3 -3 -4 -4 -4 -4 -4 -4 -4 -5 -5 -5 -5 -5 -5 -5 -5 -5 -5 -5 -5 -5 -5 -5 -5 -5
-2 -2 -2 -2 -2 -2 -2 -2 -2 -3 -3 -3 -3 -3 -3 -3 -3 -3 -3 -4 -4 -4 -4 -4 -4 -4 -5 -5 -5 -5 -5 -5 -5 -5 -5 -5 -5 -5 -5 -5 -5 -5 -5 -5
-2 -2 -2 -2 -2 -2 -2 -3 -3 -3 -3 -3 -3 -3 -3 -3 -4 -4 -4 -4 -4 -4 -4 -4 -5 -5 -5 -5 -5 -5 -5 -5 -5 -5 -5 -5 -5 -5 -5 -5 -5 -6 -6 -6
-3 -2 -2 -3 -3 -3 -3 -3 -3 -3 -3 -4 -4 -4 -4 -4 -4 -4 -4 -4 -4 -5 -5 -5 -5 -5 -5 -5 -5 -5 -6 -6 -5 -5 -5 -5 -5 -5 -6 -6 -6 -6 -6 -6
-3 -3 -3 -3 -3 -3 -3 -4 -4 -4 -4 -4 -4 -4 -4 -4 -4 -4 -5 -4 -4 -5 -5 -5 -5 -5 -5 -5 -5 -6 -6 -6 -6 -6 -6 -5 -5 -6 -6 -6 -6 -6 -6 -6
-3 -3 -4 -4 -4 -4 -4 -4 -4 -4 -4 -4 -5 -5 -5 -5 -5 -5 -5 -5 -5 -5 -5 -5 -5 -5 -5 -6 -6 -6 -6 -6 -6 -6 -6 -6 -6 -6 -6 -6 -6 -6 -6 -6
-4 -4 -4 -4 -4 -4 -4 -4 -5 -5 -5 -5 -5 -5 -5 -5 -5 -5 -5 -5 -5 -5 -5 -5 -5 -6 -6 -6 -6 -6 -6 -6 -6 -6 -6 -6 -6 -6 -6 -6 -6 -6 -6 -6
-4 -4 -4 -5 -5 -5 -5 -5 -5 -5 -5 -5 -5 -5 -5 -5 -5 -5 -5 -5 -5 -5 -5 -5 -6 -6 -6 -6 -6 -6 -6 -6 -6 -6 -6 -6 -6 -6 -6 -6 -6 -6 -6 -6
-4 -4 -5 -5 -5 -5 -5 -5 -5 -5 -5 -5 -5 -5 -5 -5 -5 -5 -5 -5 -5 -6 -6 -6 -6 -6 -6 -6 -6 -6 -6 -6 -6 -6 -6 -6 -6 -6 -6 -6 -6 -6 -6 -6
-5 -5 -5 -5 -5 -5 -6 -6 -6 -6 -6 -6 -6 -6 -6 -6 -6 -6 -6 -6 -6 -6 -6 -6 -6 -6 -6 -6 -6 -7 -7 -6 -6 -6 -6 -6 -6 -6 -6 -6 -6 -6 -6 -6
-5 -6 -6 -6 -6 -6 -6 -6 -6 -6 -6 -6 -6 -6 -6 -6 -6 -6 -6 -6 -6 -6 -6 -6 -6 -6 -6 -6 -7 -7 -7 -7 -6 -6 -6 -6 -6 -6 -6 -6 -6 -6 -6 -6
Wind_Speed
6 5 4 7 9 8 10 9 10 10 10 12 8 7 6 5 4 3 3 3 3 3 3 3 3 2 2 1 1 1 1 1 2 2 2 2 2 2 2 2 3 3 3 3
5 4 5 9 12 12 12 9 11 11 14 9 6 5 5 5 5 5 4 4 3 3 3 3 3 2 2 1 1 0 1 2 2 1 2 2 2 2 2 2 3 2 3 3
4 4 5 9 9 10 7 8 8 12 12 5 5 6 6 6 5 5 5 4 4 4 4 4 3 2 2 2 1 0 1 1 1 2 2 2 2 2 3 3 3 3 3 3
2 2 8 7 2 6 7 8 9 8 7 5 7 6 5 5 5 5 5 4 4 4 3 3 3 2 1 1 1 1 1 2 2 2 2 2 2 2 3 3 3 3 3 4
2 4 8 8 3 4 5 7 7 9 8 6 2 2 3 3 3 5 5 4 4 4 4 3 2 2 1 1 1 1 2 3 2 2 2 2 3 3 3 3 3 3 3 4
3 4 7 6 2 2 2 6 5 6 7 4 1 1 4 2 2 3 3 3 3 3 2 2 2 1 1 1 1 2 3 3 3 2 2 3 3 3 3 3 3 3 4 4
6 6 9 6 2 4 3 6 3 4 5 4 5 5 4 2 2 2 3 3 2 2 2 2 1 1 1 1 3 3 3 2 2 2 3 3 3 3 3 3 3 3 4 4
6 6 9 4 6 7 7 3 2 3 4 4 5 4 3 2 2 2 3 3 2 1 2 2 1 1 1 3 3 2 2 2 3 3 2 2 2 3 2 2 3 3 3 4
9 9 4 5 7 5 3 3 3 3 4 4 3 4 3 2 3 3 3 2 2 1 2 2 1 1 2 3 2 2 2 2 3 3 2 2 2 3 2 2 2 3 3 3
6 8 6 6 5 5 4 5 4 4 3 3 4 4 4 3 3 3 3 2 2 1 1 3 2 2 3 3 2 1 2 3 2 2 2 2 2 3 2 2 3 3 3 3
6 7 5 6 7 7 5 4 3 2 3 4 4 4 4 3 3 3 3 2 2 2 2 3 3 3 2 2 1 1 2 2 2 2 2 3 3 3 3 4 4 4 4 4
8 7 6 5 4 4 4 4 4 3 2 2 3 4 3 3 3 3 2 2 2 2 2 3 3 3 3 2 1 1 2 2 2 2 2 2 2 3 4 4 6 6 6 5
7 4 4 4 3 3 4 4 3 3 3 3 3 3 3 3 3 2 2 2 3 3 3 3 3 3 3 2 2 2 3 3 2 2 2 2 2 2 3 4 4 4 4 5
4 2 3 4 4 3 3 2 2 1 2 2 3 2 2 2 2 3 3 3 3 3 3 3 3 4 4 2 2 2 3 3 2 2 2 2 2 2 2 2 3 3 4 5
5 5 5 3 2 2 1 1 1 1 1 2 2 2 3 3 4 4 3 2 2 3 3 3 4 5 3 2 2 2 2 2 2 2 2 2 2 2 2 2 2 3 3 3
3 2 2 2 3 2 2 2 2 3 2 2 2 3 3 3 3 3 3 2 2 4 4 4 5 4 3 2 2 2 2 3 2 1 1 1 1 2 2 2 2 2 3 3
3 3 3 3 4 4 4 4 4 4 3 3 4 3 2 2 2 3 3 3 3 5 5 5 5 4 3 2 3 2 2 2 2 1 1 2 2 2 2 2 2 2 3 3
6 6 6 6 5 4 4 3 3 3 4 4 3 2 2 3 4 5 4 3 3 4 5 5 4 3 3 3 2 2 2 2 1 2 2 2 2 2 2 2 2 2 3 3
4 5 5 4 4 4 4 4 3 3 3 2 3 3 4 4 4 4 3 3 4 5 5 4 4 3 2 3 3 2 2 2 2 1 1 2 2 1 1 1 2 2 2 2
2 3 3 2 2 2 3 3 2 2 3 3 3 3 3 4 4 3 3 4 5 4 4 4 3 3 3 3 3 2 2 2 2 1 1 1 1 1 1 2 2 2 2 2
3 2 2 2 2 2 2 3 3 3 3 3 3 4 4 4 3 3 3 4 4 4 4 5 3 2 2 3 3 2 2 2 2 2 2 1 1 1 1 2 2 2 2 2
2 2 2 2 2 2 2 2 3 3 3 3 3 3 3 4 3 3 4 4 4 4 3 2 2 3 3 3 2 2 2 2 2 2 1 1 1 1 1 2 2 2 2 2
2 2 2 3 3 2 2 2 2 3 3 4 4 4 4 4 3 3 4 3 3 4 2 2 3 3 3 1 1 2 2 2 2 2 2 2 2 2 2 2 2 2 2 2
2 2 2 1 1 1 2 3 2 2 3 3 4 4 3 3 2 3 3 4 4 3 2 3 4 3 2 1 1 1 1 1 1 1 1 1 1 1 1 1 1 2 2 2
2 2 1 2 2 2 3 2 2 2 2 2 2 3 2 2 3 2 2 2 2 2 1 2 3 2 1 1 1 1 1 1 2 1 1 1 1 1 1 1 2 2 2 2
1 2 2 3 3 2 2 2 2 2 1 1 2 2 1 1 1 1 1 1 1 2 1 1 1 1 1 1 1 1 1 1 1 1 1 1 1 1 1 1 2 2 2 2
1 1 1 1 1 1 2 2 2 2 2 2 2 2 1 1 1 1 0 1 1 1 1 0 0 1 1 1 1 1 1 1 1 1 1 1 1 1 2 2 2 2 2 2
Wind_Direction
255 259 241 242 238 222 220 220 227 246 247 262 265 270 274 267 268 275 273 264 271 280 287 293 293 297 300 291 278 246 195 221 247 256 257 260 265 263 259 249 251 248 248 249
276 264 256 263 248 228 230 231 242 261 269 260 261 262 261 256 253 259 261 261 267 273 278 280 276 277 284 286 282 243 243 261 270 268 267 265 270 270 271 264 265 259 255 251
270 304 319 270 238 212 216 215 211 237 251 256 255 257 253 249 242 242 254 262 265 265 265 268 270 265 264 273 276 250 263 279 272 262 268 275 277 276 272 266 262 260 262 257
270 346 250 253 214 200 220 241 227 243 260 252 247 264 260 235 227 242 250 252 259 264 269 272 267 270 278 293 294 278 277 281 279 274 272 275 274 276 273 260 257 258 262 261
199 253 275 290 243 185 205 267 235 235 254 262 261 329 295 243 220 231 245 252 251 251 261 264 259 251 244 289 284 281 279 278 275 275 272 267 270 272 268 256 258 259 262 257
182 224 249 258 242 189 127 287 257 220 237 237 123 283 272 273 265 265 272 270 256 260 264 259 260 205 177 252 270 274 277 279 282 275 268 265 266 266 265 252 255 258 262 255
206 232 262 255 218 132 169 254 263 209 217 198 203 226 255 299 299 285 288 288 271 259 263 259 245 181 210 254 269 276 283 287 290 283 272 269 274 269 264 259 260 257 262 263
183 215 252 211 148 184 221 250 232 211 213 214 229 251 269 280 289 301 308 307 292 282 292 287 239 186 232 263 277 292 293 294 293 288 282 282 271 275 266 252 255 262 267 274
197 217 246 191 204 226 216 232 236 219 224 207 231 253 269 276 278 286 285 286 290 264 297 308 289 221 237 270 284 293 298 297 298 296 288 282 265 266 264 247 250 263 262 270
240 257 250 243 249 258 243 235 240 229 225 207 226 249 265 271 277 281 282 276 282 270 279 296 301 282 254 273 279 274 287 297 298 296 293 288 275 261 253 248 248 254 261 265
245 264 279 262 238 241 241 240 244 245 223 216 215 243 247 257 264 266 281 285 271 251 261 278 290 289 283 279 264 273 284 292 295 291 288 288 280 268 260 250 250 248 250 253
231 228 211 243 241 221 219 235 236 232 248 244 212 225 241 251 255 255 264 275 273 267 265 277 284 289 291 287 251 252 278 287 288 289 289 291 295 308 299 282 284 271 265 265
230 241 227 253 264 229 221 235 231 221 223 245 251 227 230 243 252 247 255 259 258 263 267 271 278 284 288 283 258 241 256 269 276 278 285 289 292 301 315 325 322 311 294 286
230 210 245 244 251 251 229 230 221 231 239 230 237 237 235 248 253 248 253 257 259 264 267 265 268 275 281 274 255 249 255 263 265 263 268 273 277 284 290 305 320 321 323 316
238 222 228 242 247 250 222 177 183 251 266 273 246 234 235 239 248 258 262 264 269 269 268 265 267 275 278 264 254 249 251 260 257 258 263 266 273 283 287 294 300 308 318 320
237 232 222 221 231 235 218 203 213 244 253 254 258 257 251 245 250 263 266 248 248 263 267 266 267 272 266 254 256 258 254 256 261 258 261 271 270 276 283 288 294 300 304 305
187 223 221 231 237 236 230 227 220 230 244 248 252 261 259 250 263 270 272 264 253 259 263 260 265 272 261 247 243 256 260 259 263 271 258 256 260 266 274 279 286 293 297 306
215 217 213 212 219 227 238 238 232 235 243 246 248 244 238 235 247 260 268 276 279 280 272 260 260 262 254 246 238 242 243 240 235 239 251 256 267 270 275 278 284 292 303 314
220 216 216 214 210 209 223 235 237 239 249 239 231 242 249 249 250 257 263 265 268 277 279 264 266 263 249 246 244 230 229 234 240 243 240 259 278 279 285 293 296 296 301 311
222 214 206 205 203 204 225 237 234 245 247 233 235 248 258 259 253 252 256 262 258 255 260 269 267 252 244 241 233 214 215 221 229 243 241 236 250 269 276 283 291 296 299 305
232 226 208 206 229 236 225 220 220 239 250 235 231 242 254 264 255 244 249 271 273 257 257 268 267 247 236 230 216 202 210 220 227 235 240 240 243 259 273 280 285 286 286 291
227 221 223 220 223 256 261 241 230 235 246 252 251 247 252 261 258 256 250 250 261 271 273 254 249 246 238 220 194 201 218 224 227 225 227 230 234 250 269 277 281 284 288 294
232 228 227 228 226 244 273 263 243 235 241 245 244 243 244 249 245 245 270 263 253 264 270 247 249 251 226 200 192 203 212 216 222 223 224 228 235 241 253 267 277 283 287 293
232 233 235 234 203 223 260 270 261 250 248 256 253 245 240 250 265 252 248 261 269 272 263 250 254 253 228 189 182 192 207 220 230 228 221 227 237 245 254 262 270 275 278 283
226 226 220 211 224 242 247 260 278 279 270 272 274 268 251 231 236 257 256 247 255 275 269 257 258 256 215 173 186 202 213 227 231 225 219 223 231 243 253 257 258 262 271 276
242 236 237 237 237 237 231 227 243 255 257 281 293 285 279 263 236 242 249 252 251 267 268 261 231 228 183 190 199 208 214 240 255 251 238 237 237 243 251 260 265 265 268 273
260 249 245 276 274 230 213 214 223 237 237 237 266 280 276 271 253 245 244 259 266 263 248 228 203 200 195 197 203 206 205 216 221 223 226 229 235 245 255 262 268 268 271 274
Height
1484 1482 1483 1482 1481 1483 1483 1480 1479 1470 1469 1459 1457 1456 1455 1455 1454 1454 1454 1453 1453 1453 1452 1452 1451 1451 1451 1451 1451 1450 1450 1450 1450 1450 1450 1450 1450 1450 1450 1449 1449 1449 1449 1449
1483 1480 1480 1478 1473 1474 1474 1473 1471 1467 1461 1454 1453 1453 1452 1452 1452 1451 1451 1451 1451 1450 1450 1449 1449 1448 1448 1448 1448 1447 1447 1447 1447 1447 1447 1446 1446 1446 1446 1445 1445 1445 1445 1444
1482 1481 1477 1472 1463 1464 1465 1463 1463 1461 1453 1450 1451 1450 1449 1449 1449 1449 1449 1449 1448 1448 1447 1447 1446 1445 1445 1445 1445 1445 1445 1444 1444 1443 1443 1442 1442 1442 1442 1442 1441 1441 1441 1440
1485 1483 1477 1458 1456 1456 1457 1456 1455 1452 1449 1448 1447 1447 1446 1446 1446 1446 1446 1446 1445 1445 1444 1444 1443 1443 1442 1442 1442 1442 1442 1441 1441 1440 1439 1439 1439 1438 1438 1438 1437 1437 1436 1436
1486 1483 1471 1457 1454 1455 1456 1452 1448 1448 1446 1446 1445 1445 1443 1444 1444 1444 1443 1443 1443 1442 1442 1441 1440 1440 1439 1439 1439 1439 1438 1438 1437 1437 1436 1436 1435 1435 1434 1434 1434 1433 1433 1432
1483 1479 1470 1453 1450 1449 1453 1452 1444 1443 1443 1444 1444 1447 1443 1442 1441 1441 1441 1440 1440 1439 1439 1438 1438 1437 1436 1436 1436 1435 1435 1435 1434 1434 1433 1432 1432 1431 1431 1431 1430 1429 1429 1428
1477 1476 1463 1450 1448 1450 1456 1449 1441 1440 1440 1441 1442 1442 1441 1439 1439 1438 1438 1437 1437 1436 1436 1435 1435 1434 1434 1433 1433 1433 1432 1432 1431 1430 1430 1429 1428 1428 1428 1427 1426 1426 1425 1425
1472 1471 1459 1445 1446 1448 1444 1439 1439 1438 1438 1439 1438 1438 1437 1437 1437 1436 1435 1435 1434 1434 1433 1433 1432 1432 1431 1430 1430 1430 1429 1429 1428 1427 1427 1426 1425 1425 1424 1423 1423 1422 1421 1421
1454 1449 1441 1439 1438 1438 1438 1437 1436 1436 1436 1436 1436 1435 1435 1435 1434 1434 1433 1433 1432 1431 1431 1430 1430 1430 1429 1428 1428 1427 1426 1425 1425 1424 1424 1423 1422 1422 1421 1420 1419 1418 1418 1417
1449 1441 1437 1436 1435 1435 1435 1435 1434 1434 1434 1434 1433 1433 1433 1433 1432 1431 1431 1430 1430 1429 1428 1428 1428 1428 1427 1426 1425 1424 1423 1423 1422 1421 1421 1420 1419 1419 1418 1417 1416 1415 1414 1414
1443 1436 1434 1432 1431 1431 1432 1432 1432 1432 1432 1432 1431 1431 1430 1430 1430 1429 1429 1428 1428 1427 1426 1426 1425 1425 1424 1423 1423 1422 1421 1420 1419 1419 1418 1417 1416 1416 1415 1414 1414 1413 1411 1411
1433 1428 1429 1427 1427 1428 1428 1428 1428 1428 1428 1429 1429 1428 1428 1427 1427 1427 1426 1426 1425 1425 1424 1423 1423 1422 1421 1421 1420 1419 1418 1417 1417 1416 1415 1415 1414 1413 1412 1412 1411 1410 1409 1409
1424 1424 1424 1424 1424 1424 1425 1425 1425 1425 1425 1426 1426 1426 1425 1425 1425 1424 1424 1423 1423 1422 1422 1421 1420 1419 1419 1418 1417 1416 1416 1415 1415 1414 1413 1413 1412 1411 1410 1409 1409 1407 1407 1406
1420 1421 1421 1421 1421 1422 1422 1422 1422 1423 1423 1423 1423 1423 1423 1422 1422 1422 1421 1421 1421 1420 1419 1418 1418 1417 1416 1416 1415 1414 1413 1413 1412 1412 1411 1410 1410 1409 1408 1407 1406 1405 1405 1404
1416 1418 1418 1418 1419 1419 1419 1419 1419 1419 1420 1420 1420 1420 1420 1419 1419 1419 1419 1418 1418 1417 1416 1416 1415 1414 1414 1413 1412 1411 1411 1410 1410 1409 1409 1408 1408 1407 1406 1405 1404 1403 1403 1403
1413 1414 1415 1415 1415 1416 1416 1416 1416 1416 1417 1417 1417 1417 1417 1416 1416 1416 1416 1415 1415 1414 1413 1413 1412 1412 1411 1410 1409 1409 1408 1408 1407 1407 1407 1406 1405 1405 1404 1404 1403 1402 1401 1401
1410 1410 1410 1411 1412 1413 1413 1414 1414 1414 1414 1414 1414 1414 1414 1413 1413 1412 1412 1412 1411 1410 1410 1409 1409 1408 1408 1407 1407 1406 1406 1405 1405 1405 1404 1404 1404 1403 1403 1402 1402 1401 1400 1400
1406 1407 1408 1408 1409 1410 1410 1411 1411 1411 1411 1411 1411 1411 1410 1410 1409 1409 1409 1408 1408 1407 1406 1406 1406 1405 1405 1404 1404 1404 1403 1403 1403 1403 1403 1402 1402 1402 1401 1401 1400 1399 1399 1398
1403 1404 1405 1406 1407 1407 1408 1408 1408 1408 1408 1408 1408 1407 1407 1407 1406 1406 1405 1405 1404 1403 1403 1403 1403 1402 1402 1402 1402 1401 1401 1401 1401 1401 1401 1401 1400 1400 1400 1399 1399 1398 1398 1397
1400 1401 1402 1403 1404 1405 1405 1405 1405 1405 1405 1405 1404 1404 1403 1403 1403 1403 1402 1401 1401 1401 1400 1400 1399 1399 1399 1399 1399 1399 1399 1399 1399 1399 1399 1399 1399 1399 1398 1398 1398 1397 1397 1396
1397 1398 1399 1400 1400 1401 1402 1402 1402 1401 1401 1401 1401 1400 1400 1400 1400 1399 1399 1398 1398 1398 1397 1397 1396 1396 1396 1396 1396 1397 1397 1397 1397 1397 1397 1397 1397 1397 1397 1397 1396 1396 1395 1395
1395 1396 1396 1397 1397 1398 1398 1398 1398 1398 1398 1397 1397 1397 1397 1396 1396 1396 1396 1396 1395 1395 1394 1394 1394 1394 1394 1394 1394 1394 1395 1395 1395 1395 1395 1396 1396 1396 1396 1396 1395 1395 1394 1394
1393 1394 1394 1394 1394 1394 1395 1395 1395 1395 1394 1394 1394 1394 1394 1393 1393 1393 1393 1393 1392 1392 1392 1392 1392 1392 1392 1392 1392 1393 1393 1393 1393 1393 1394 1394 1394 1394 1394 1394 1394 1394 1393 1393
1391 1392 1392 1392 1392 1392 1392 1392 1392 1392 1392 1391 1391 1391 1391 1391 1390 1391 1390 1390 1390 1390 1390 1390 1390 1390 1390 1390 1390 1391 1391 1391 1392 1392 1392 1393 1393 1393 1393 1393 1393 1392 1392 1392
1389 1389 1389 1389 1389 1389 1389 1389 1389 1389 1389 1389 1389 1388 1389 1388 1388 1388 1388 1388 1388 1388 1388 1388 1388 1388 1388 1388 1389 1389 1389 1390 1390 1391 1391 1391 1392 1392 1392 1392 1391 1391 1391 1391
1387 1387 1387 1387 1387 1387 1387 1387 1386 1386 1386 1386 1386 1386 1386 1386 1386 1386 1386 1386 1386 1386 1386 1386 1386 1386 1386 1387 1387 1387 1388 1388 1389 1389 1390 1390 1390 1390 1391 1391 1390 1390 1390 1390
1385 1385 1385 1385 1385 1385 1385 1385 1385 1384 1384 1384 1384 1384 1384 1384 1384 1384 1384 1384 1384 1384 1384 1384 1384 1385 1385 1385 1385 1386 1386 1387 1387 1388 1388 1389 1389 1389 1389 1390 1389 1389 1389 1389